CZ-3B DEB, 40162

Orbit data source: Space-Track

CZ-3B DEB, 40162 is space debris in HEO originally from a launch on Sat, 04 Sep 2010 UTC launched from the Xichang Space Center, China (XSC). Debris objects in space refer to the collection of defunct objects orbiting the Earth. Examples of debris include non-operational satellites, rocket bodies, and fragments generated from explosions, collisions, or faulty payload assembly.

Loading next visibility...
Identifier
40162, 2010-042P
Orbit
HEO
Country
Flag of CNCN / PRC
Related business
Manufacturer
CALT
Mission
Spacecraft
Bus & Motor
Unknown
Mass
Unknown
Launch date (UTC)
2010-09-04 (16 years ago)
Launch vehicle
Unknown
Launch site
Xichang Space Center, China (XSC)
Object type
Payload
Rocket body
Debris
Shape & HBR
Unknown shape, 0.2 m
Radar Cross Section
Medium (>0.1 m² and <1 m²)

Expand to show TLE details & history
Last TLE update: 3 days ago

TLE from 3 days ago
0 CZ-3B DEB
1 40162U 10042P   26261.24496676  .00000093  00000-0  00000+0 0  9992
2 40162  26.2703 233.9462 7248813  34.3711 356.0065  1.92057370 89990
Epoch: 2026-09-18T05:52Z
TLE epoch observation values (Epoch: 2026-09-18T05:52:45.128Z)
Latitude
0.00006°
Longitude
148.52481°
Altitude
1,761.136 km
Speed
9.13 km/s
True Right ascension
15h 35m 32s
True Declination
0° 00' 00"
Sunlit
Object was in daylight at epoch
Visualization orbit readout
Latitude
Unknown
Longitude
Unknown
Altitude
Unknown
Speed
Unknown
Apparent Right ascension
Unknown
Apparent Declination
Unknown
Sunlit
N/A
Visualization observer readout
Local Sidereal Time
05:43:56
Azimuth
Unknown
Elevation
Unknown
Doppler factor
Unknown
Orbital elements
Apogee altitude
40,784.269 km
Perigee altitude
1,144.27 km
Semi-major axis
27,342.407 km
Eccentricity
0.72488
Inclination
26.2703°
RAAN
233.9462°
Arg. of periapsis
34.3711°
True anomaly
325.49904°
Mean anomaly
356.0065°
Eccentric anomaly
345.86137°
Mean motion
0.48005 °/min
Orbital period
749.92 mins
BSTAR
0
Loading maneuver chart data...
Computing Atmospheric mass density...
Loading historical data...
Loading historical data...
Loading historical data...
Loading historical data...
Loading historical data...
Loading historical data...
Loading historical data...

Documentation

Showing up to 5 results
|